EWG145 LEPA-EDDS

Flight info

Callsign EWG145
Flight time 1h 35m
Altitude 37000
Route MEROS N853 LUMAS DCT MAXIR DCT LUSOL DCT BODRU DCT OKTET DCT IRMAR DCT KINES DCT VANAS DCT MOBLO DCT LAMUR DCT KORED DCT BERSU N871 DITON T163 ZUE T125 REUTL REUTL1W
Aircraft A320/M-SDE3FGHIRWY/LB1

Departure

Time 2026-05-06 15:51
Airport Palma de Mallorca Airport (LEPA)

Arrival

Time 2026-05-06 17:26
Airport Stuttgart Airport (EDDS)
Time Latitude Longitude Altitude Speed Heading
2026-05-06 15:27 39.54758 2.73632 37 ft 0 kts 58°
2026-05-06 15:42 39.54750 2.73617 37 ft 4 kts 62°
2026-05-06 15:42 39.54741 2.73586 38 ft 4 kts 81°
2026-05-06 15:42 39.54742 2.73555 37 ft 4 kts 131°
2026-05-06 15:42 39.54748 2.73548 36 ft 0 kts 149°
2026-05-06 15:46 39.54740 2.73554 37 ft 8 kts 149°
2026-05-06 15:46 39.54681 2.73600 38 ft 10 kts 149°
2026-05-06 15:46 39.54615 2.73627 38 ft 10 kts 164°
2026-05-06 15:47 39.54547 2.73612 38 ft 14 kts 232°
2026-05-06 15:47 39.54496 2.73507 38 ft 13 kts 239°
2026-05-06 15:47 39.54450 2.73410 38 ft 12 kts 238°
2026-05-06 15:47 39.54406 2.73318 38 ft 13 kts 238°
2026-05-06 15:48 39.54355 2.73209 38 ft 14 kts 238°
2026-05-06 15:48 39.54304 2.73104 38 ft 14 kts 238°
2026-05-06 15:48 39.54245 2.72981 38 ft 14 kts 238°
2026-05-06 15:48 39.54179 2.72923 38 ft 11 kts 159°
2026-05-06 15:49 39.54151 2.72976 38 ft 5 kts 98°
2026-05-06 15:49 39.54151 2.72982 38 ft 0 kts 91°
2026-05-06 15:50 39.54150 2.73029 38 ft 11 kts 91°
2026-05-06 15:50 39.54151 2.73145 38 ft 16 kts 90°
2026-05-06 15:50 39.54199 2.73325 37 ft 41 kts 58°
2026-05-06 15:50 39.54490 2.73936 38 ft 112 kts 58°
2026-05-06 15:51 39.54992 2.75003 102 ft 158 kts 59°
2026-05-06 15:51 39.55544 2.76215 862 ft 156 kts 59°
2026-05-06 15:51 39.56098 2.77442 1481 ft 166 kts 60°
2026-05-06 15:51 39.56722 2.78822 1897 ft 188 kts 60°
2026-05-06 15:52 39.57428 2.80362 2347 ft 209 kts 59°
2026-05-06 15:52 39.58195 2.82027 2986 ft 220 kts 59°
2026-05-06 15:52 39.58977 2.83738 3887 ft 222 kts 59°
2026-05-06 15:52 39.59774 2.85480 4792 ft 227 kts 59°
2026-05-06 15:53 39.60589 2.87260 5593 ft 232 kts 58°
2026-05-06 15:53 39.61419 2.89075 6403 ft 237 kts 58°
2026-05-06 15:53 39.62265 2.90927 7196 ft 243 kts 59°
2026-05-06 15:53 39.63149 2.92918 7620 ft 267 kts 59°
2026-05-06 15:54 39.64097 2.95104 8152 ft 286 kts 60°
2026-05-06 15:54 39.65082 2.97392 8965 ft 294 kts 60°
2026-05-06 15:54 39.66084 2.99725 9850 ft 299 kts 60°
2026-05-06 15:54 39.67123 3.02137 10348 ft 318 kts 60°
2026-05-06 15:55 39.68241 3.04725 10778 ft 336 kts 60°
2026-05-06 15:55 39.69399 3.07410 11487 ft 344 kts 60°
2026-05-06 15:55 39.70584 3.10149 12247 ft 351 kts 60°
2026-05-06 15:55 39.71790 3.12934 13041 ft 357 kts 60°
2026-05-06 15:56 39.73019 3.15778 13833 ft 364 kts 60°
2026-05-06 15:56 39.74266 3.18670 14519 ft 370 kts 60°
2026-05-06 15:56 39.75529 3.21609 15170 ft 375 kts 60°
2026-05-06 15:56 39.76812 3.24587 15816 ft 381 kts 59°
2026-05-06 15:57 39.78322 3.27435 16440 ft 385 kts 49°
2026-05-06 15:57 39.80084 3.30082 17053 ft 390 kts 47°
2026-05-06 15:57 39.81878 3.32759 17719 ft 394 kts 47°
2026-05-06 15:57 39.83689 3.35459 18351 ft 399 kts 47°
2026-05-06 15:58 39.85522 3.38200 18894 ft 404 kts 47°
2026-05-06 15:58 39.87374 3.40977 19445 ft 408 kts 47°
2026-05-06 15:58 39.89241 3.43785 19819 ft 412 kts 47°
2026-05-06 15:58 39.91118 3.46618 19925 ft 413 kts 47°
2026-05-06 15:59 39.92991 3.49454 19979 ft 414 kts 48°
2026-05-06 15:59 39.94873 3.52309 20472 ft 417 kts 48°
2026-05-06 15:59 39.96773 3.55189 21039 ft 421 kts 48°
2026-05-06 15:59 39.98697 3.58098 21587 ft 425 kts 47°
2026-05-06 16:00 40.00640 3.61033 22094 ft 430 kts 47°
2026-05-06 16:00 40.02608 3.64004 22594 ft 434 kts 47°
2026-05-06 16:00 40.04590 3.66997 23105 ft 438 kts 47°
2026-05-06 16:00 40.06592 3.70030 23602 ft 442 kts 48°
2026-05-06 16:01 40.08607 3.73087 24013 ft 446 kts 48°
2026-05-06 16:01 40.10636 3.76166 24440 ft 449 kts 48°
2026-05-06 16:01 40.12678 3.79274 24881 ft 452 kts 48°
2026-05-06 16:01 40.14727 3.82405 25281 ft 455 kts 48°
2026-05-06 16:02 40.16792 3.85557 25691 ft 458 kts 48°
2026-05-06 16:02 40.18876 3.88737 26116 ft 461 kts 48°
2026-05-06 16:02 40.20974 3.91935 26486 ft 465 kts 48°
2026-05-06 16:02 40.23087 3.95166 26880 ft 469 kts 48°
2026-05-06 16:03 40.25209 3.98421 27266 ft 472 kts 48°
2026-05-06 16:03 40.27342 4.01701 27652 ft 475 kts 48°
2026-05-06 16:03 40.29494 4.05001 28033 ft 478 kts 48°
2026-05-06 16:03 40.31660 4.08325 28409 ft 481 kts 48°
2026-05-06 16:04 40.33838 4.11675 28782 ft 484 kts 48°
2026-05-06 16:04 40.36025 4.15045 29151 ft 487 kts 48°
2026-05-06 16:04 40.38224 4.18439 29516 ft 490 kts 48°
2026-05-06 16:04 40.40434 4.21855 29918 ft 492 kts 48°
2026-05-06 16:05 40.42661 4.25297 30194 ft 496 kts 48°
2026-05-06 16:05 40.44907 4.28756 30476 ft 499 kts 46°
2026-05-06 16:05 40.47400 4.31921 30760 ft 499 kts 37°
2026-05-06 16:05 40.50209 4.34561 31046 ft 497 kts 27°
2026-05-06 16:06 40.53317 4.36661 31327 ft 494 kts 18°
2026-05-06 16:06 40.56540 4.38116 31604 ft 489 kts
2026-05-06 16:06 40.59813 4.38990 31983 ft 484 kts
2026-05-06 16:06 40.63163 4.39782 32409 ft 483 kts
2026-05-06 16:07 40.66469 4.40572 32818 ft 482 kts
2026-05-06 16:07 40.69727 4.41358 33218 ft 482 kts
2026-05-06 16:07 40.73062 4.42165 33628 ft 481 kts
2026-05-06 16:07 40.76353 4.42964 34021 ft 480 kts
2026-05-06 16:08 40.79640 4.43759 34360 ft 479 kts
2026-05-06 16:08 40.82876 4.44542 34711 ft 479 kts
2026-05-06 16:08 40.86195 4.45345 35020 ft 479 kts
2026-05-06 16:08 40.89471 4.46138 35307 ft 478 kts
2026-05-06 16:09 40.92748 4.46928 35603 ft 478 kts
2026-05-06 16:09 40.96017 4.47715 35898 ft 478 kts
2026-05-06 16:09 40.99242 4.48495 36183 ft 477 kts
2026-05-06 16:09 41.02550 4.49297 36474 ft 477 kts
2026-05-06 16:10 41.05806 4.50087 36780 ft 476 kts
2026-05-06 16:10 41.09066 4.50879 37038 ft 476 kts
2026-05-06 16:10 41.12324 4.51675 37300 ft 476 kts
2026-05-06 16:10 41.15580 4.52472 37559 ft 476 kts
2026-05-06 16:11 41.18830 4.53266 37818 ft 475 kts
2026-05-06 16:11 41.22083 4.54057 37955 ft 476 kts
2026-05-06 16:11 41.28592 4.55647 37963 ft 475 kts
2026-05-06 16:12 41.35101 4.57237 37965 ft 476 kts
2026-05-06 16:12 41.41611 4.58828 37961 ft 476 kts
2026-05-06 16:13 41.48132 4.60434 37981 ft 477 kts
2026-05-06 16:13 41.54657 4.62044 37961 ft 477 kts
2026-05-06 16:14 41.61187 4.63658 37957 ft 477 kts
2026-05-06 16:14 41.67722 4.65277 37955 ft 477 kts
2026-05-06 16:15 41.74165 4.67629 37960 ft 487 kts 20°
2026-05-06 16:15 41.80120 4.72114 37958 ft 493 kts 27°
2026-05-06 16:16 41.85995 4.76847 37953 ft 493 kts 27°
2026-05-06 16:16 41.91874 4.81577 37947 ft 493 kts 27°
2026-05-06 16:17 41.97755 4.86322 37950 ft 493 kts 27°
2026-05-06 16:17 42.03629 4.91077 37950 ft 493 kts 27°
2026-05-06 16:18 42.08513 4.95033 37952 ft 493 kts 27°
2026-05-06 16:18 42.14389 4.99800 37950 ft 493 kts 27°
2026-05-06 16:19 42.20263 5.04570 37948 ft 493 kts 27°
2026-05-06 16:19 42.26136 5.09363 37945 ft 493 kts 28°
2026-05-06 16:20 42.31994 5.14170 37940 ft 492 kts 28°
2026-05-06 16:20 42.37839 5.18964 37942 ft 491 kts 28°
2026-05-06 16:21 42.43687 5.23761 37940 ft 491 kts 28°
2026-05-06 16:21 42.49527 5.28562 37960 ft 491 kts 28°
2026-05-06 16:22 42.55344 5.33367 37910 ft 489 kts 28°
2026-05-06 16:22 42.61163 5.38180 37930 ft 490 kts 28°
2026-05-06 16:23 42.66982 5.43000 37934 ft 490 kts 28°
2026-05-06 16:23 42.72802 5.47823 37934 ft 490 kts 28°
2026-05-06 16:24 42.78612 5.52665 37928 ft 490 kts 28°
2026-05-06 16:24 42.84429 5.57531 37928 ft 490 kts 28°
2026-05-06 16:25 42.90237 5.62382 37935 ft 489 kts 28°
2026-05-06 16:25 42.96024 5.67216 37923 ft 487 kts 28°
2026-05-06 16:26 43.01798 5.72064 37909 ft 487 kts 28°
2026-05-06 16:26 43.07578 5.76930 37920 ft 488 kts 28°
2026-05-06 16:27 43.13361 5.81812 37917 ft 488 kts 28°
2026-05-06 16:27 43.19132 5.86694 37918 ft 488 kts 28°
2026-05-06 16:28 43.24908 5.91588 37915 ft 488 kts 28°
2026-05-06 16:28 43.30679 5.96493 37902 ft 488 kts 29°
2026-05-06 16:29 43.36493 6.01311 37894 ft 486 kts 22°
2026-05-06 16:29 43.42815 6.04235 37893 ft 475 kts
2026-05-06 16:30 43.48285 6.04934 37912 ft 471 kts 359°
2026-05-06 16:30 43.55949 6.05680 37890 ft 473 kts 359°
2026-05-06 16:31 43.62513 6.06359 37882 ft 473 kts 359°
2026-05-06 16:31 43.69072 6.07030 37889 ft 473 kts 359°
2026-05-06 16:32 43.75636 6.07930 37884 ft 478 kts
2026-05-06 16:32 43.81926 6.11103 37883 ft 487 kts 23°
2026-05-06 16:33 43.88005 6.15238 37892 ft 488 kts 23°
2026-05-06 16:34 43.97143 6.21474 37890 ft 488 kts 23°
2026-05-06 16:34 44.03231 6.25639 37898 ft 488 kts 23°
2026-05-06 16:35 44.09314 6.29822 37889 ft 487 kts 23°
2026-05-06 16:35 44.15387 6.33998 37894 ft 487 kts 23°
2026-05-06 16:36 44.21462 6.38185 37902 ft 487 kts 23°
2026-05-06 16:36 44.27529 6.42379 37898 ft 486 kts 23°
2026-05-06 16:37 44.33583 6.46572 37889 ft 486 kts 23°
2026-05-06 16:37 44.39647 6.50781 37905 ft 486 kts 23°
2026-05-06 16:38 44.45699 6.54985 37900 ft 485 kts 24°
2026-05-06 16:38 44.51739 6.59196 37903 ft 484 kts 24°
2026-05-06 16:39 44.57770 6.63402 37903 ft 484 kts 24°
2026-05-06 16:39 44.63797 6.67623 37910 ft 484 kts 24°
2026-05-06 16:40 44.69820 6.71864 37884 ft 484 kts 24°
2026-05-06 16:40 44.75850 6.76071 37891 ft 483 kts 20°
2026-05-06 16:41 44.82251 6.78508 37881 ft 473 kts
2026-05-06 16:41 44.88761 6.78453 37882 ft 468 kts 352°
2026-05-06 16:42 44.95279 6.78024 37885 ft 470 kts 352°
2026-05-06 16:42 45.01805 6.77608 37878 ft 469 kts 353°
2026-05-06 16:43 45.08325 6.77180 37889 ft 469 kts 353°
2026-05-06 16:43 45.14846 6.76750 37909 ft 469 kts 352°
2026-05-06 16:44 45.21360 6.76314 37916 ft 468 kts 353°
2026-05-06 16:44 45.27863 6.75878 37918 ft 468 kts 353°
2026-05-06 16:45 45.34366 6.75445 37928 ft 468 kts 353°
2026-05-06 16:45 45.40878 6.75009 37936 ft 469 kts 353°
2026-05-06 16:46 45.47385 6.74577 37942 ft 468 kts 353°
2026-05-06 16:46 45.53895 6.74134 37928 ft 469 kts 353°
2026-05-06 16:47 45.60412 6.73681 37933 ft 469 kts 353°
2026-05-06 16:47 45.66918 6.73219 37938 ft 468 kts 353°
2026-05-06 16:48 45.73421 6.72774 37936 ft 468 kts 353°
2026-05-06 16:48 45.79949 6.72884 37944 ft 474 kts
2026-05-06 16:49 45.86259 6.75705 37944 ft 479 kts 22°
2026-05-06 16:49 45.92335 6.79662 37939 ft 480 kts 22°
2026-05-06 16:50 45.98412 6.83636 37937 ft 480 kts 22°
2026-05-06 16:50 46.04482 6.87631 37931 ft 479 kts 22°
2026-05-06 16:51 46.10558 6.91630 37935 ft 480 kts 22°
2026-05-06 16:51 46.16637 6.95625 37944 ft 480 kts 23°
2026-05-06 16:52 46.22705 6.99632 37936 ft 480 kts 22°
2026-05-06 16:52 46.28771 7.03651 37940 ft 480 kts 23°
2026-05-06 16:53 46.34836 7.07682 37933 ft 480 kts 23°
2026-05-06 16:53 46.40901 7.11710 37917 ft 479 kts 23°
2026-05-06 16:54 46.46959 7.15747 37921 ft 480 kts 23°
2026-05-06 16:54 46.53016 7.19808 37915 ft 479 kts 23°
2026-05-06 16:55 46.59067 7.23872 37909 ft 479 kts 23°
2026-05-06 16:55 46.65110 7.27930 37908 ft 479 kts 23°
2026-05-06 16:56 46.71155 7.32003 37889 ft 479 kts 23°
2026-05-06 16:56 46.74179 7.34044 37622 ft 479 kts 24°
2026-05-06 16:56 46.77186 7.36076 37795 ft 474 kts 24°
2026-05-06 16:56 46.79208 7.37445 37910 ft 474 kts 24°
2026-05-06 16:57 46.83072 7.40390 37889 ft 473 kts 33°
2026-05-06 16:57 46.87276 7.45571 37893 ft 472 kts 49°
2026-05-06 16:58 46.91394 7.53034 37906 ft 472 kts 52°
2026-05-06 16:58 46.95475 7.60556 37910 ft 471 kts 52°
2026-05-06 16:59 46.99540 7.68060 37902 ft 470 kts 52°
2026-05-06 16:59 47.03596 7.75573 37912 ft 470 kts 52°
2026-05-06 17:00 47.07645 7.83103 37902 ft 470 kts 52°
2026-05-06 17:00 47.11687 7.90637 37917 ft 470 kts 53°
2026-05-06 17:01 47.15414 7.98454 37922 ft 466 kts 59°
2026-05-06 17:01 47.18858 8.06530 37915 ft 466 kts 59°
2026-05-06 17:02 47.22296 8.14599 37918 ft 466 kts 59°
2026-05-06 17:02 47.25756 8.22758 37514 ft 472 kts 60°
2026-05-06 17:02 47.27477 8.26830 36881 ft 477 kts 60°
2026-05-06 17:03 47.29247 8.31024 36260 ft 474 kts 59°
2026-05-06 17:03 47.31180 8.34925 35761 ft 471 kts 51°
2026-05-06 17:03 47.33351 8.38524 35216 ft 468 kts 50°
2026-05-06 17:03 47.35513 8.42096 34689 ft 465 kts 51°
2026-05-06 17:04 47.37656 8.45645 34133 ft 462 kts 51°
2026-05-06 17:04 47.39790 8.49187 33545 ft 460 kts 51°
2026-05-06 17:04 47.41897 8.52696 33020 ft 455 kts 52°
2026-05-06 17:04 47.43985 8.56182 32505 ft 450 kts 52°
2026-05-06 17:05 47.46049 8.59633 31988 ft 446 kts 52°
2026-05-06 17:05 47.48091 8.63053 31472 ft 442 kts 53°
2026-05-06 17:05 47.50116 8.66447 30980 ft 438 kts 53°
2026-05-06 17:05 47.52123 8.69813 30490 ft 434 kts 53°
2026-05-06 17:06 47.54102 8.73136 30027 ft 430 kts 53°
2026-05-06 17:06 47.56071 8.76449 29499 ft 426 kts 53°
2026-05-06 17:06 47.58013 8.79716 29072 ft 419 kts 53°
2026-05-06 17:06 47.59780 8.83078 28615 ft 409 kts 62°
2026-05-06 17:07 47.61262 8.86623 28222 ft 402 kts 62°
2026-05-06 17:07 47.62718 8.90118 27786 ft 396 kts 62°
2026-05-06 17:07 47.64161 8.93572 27371 ft 391 kts 62°
2026-05-06 17:07 47.65587 8.96988 26930 ft 387 kts 62°
2026-05-06 17:08 47.67024 9.00335 26606 ft 382 kts 56°
2026-05-06 17:08 47.68864 9.03094 26510 ft 374 kts 38°
2026-05-06 17:08 47.71108 9.04934 26425 ft 368 kts 24°
2026-05-06 17:08 47.73467 9.06430 26345 ft 369 kts 24°
2026-05-06 17:09 47.75842 9.07928 25934 ft 373 kts 24°
2026-05-06 17:09 47.78250 9.09444 24932 ft 378 kts 24°
2026-05-06 17:09 47.80684 9.10974 23999 ft 382 kts 24°
2026-05-06 17:09 47.83109 9.12498 23411 ft 374 kts 24°
2026-05-06 17:10 47.85472 9.13983 22892 ft 363 kts 24°
2026-05-06 17:10 47.87754 9.15423 22424 ft 351 kts 24°
2026-05-06 17:10 47.89976 9.16828 21980 ft 343 kts 24°
2026-05-06 17:10 47.92190 9.18230 21524 ft 340 kts 24°
2026-05-06 17:11 47.94357 9.19601 21099 ft 338 kts 24°
2026-05-06 17:11 47.96528 9.20976 20669 ft 339 kts 24°
2026-05-06 17:11 47.98701 9.22357 20241 ft 340 kts 24°
2026-05-06 17:11 48.00882 9.23747 19808 ft 341 kts 24°
2026-05-06 17:12 48.03066 9.25139 19382 ft 342 kts 24°
2026-05-06 17:12 48.05260 9.26539 18958 ft 343 kts 24°
2026-05-06 17:12 48.07459 9.27943 18525 ft 345 kts 24°
2026-05-06 17:12 48.09672 9.29350 18091 ft 346 kts 24°
2026-05-06 17:13 48.11891 9.30763 17616 ft 346 kts 24°
2026-05-06 17:13 48.14106 9.32172 17196 ft 346 kts 23°
2026-05-06 17:13 48.16319 9.33581 16768 ft 345 kts 23°
2026-05-06 17:13 48.18524 9.34990 16349 ft 345 kts 23°
2026-05-06 17:14 48.20726 9.36403 15928 ft 344 kts 23°
2026-05-06 17:14 48.22932 9.37818 15511 ft 348 kts 23°
2026-05-06 17:14 48.25196 9.39271 15093 ft 356 kts 23°
2026-05-06 17:14 48.27505 9.40757 14661 ft 356 kts 23°
2026-05-06 17:15 48.29776 9.42220 14228 ft 355 kts 23°
2026-05-06 17:15 48.32045 9.43681 13807 ft 354 kts 23°
2026-05-06 17:15 48.34300 9.45134 13356 ft 352 kts 23°
2026-05-06 17:15 48.36542 9.46581 12915 ft 349 kts 23°
2026-05-06 17:16 48.38761 9.48016 12487 ft 343 kts 23°
2026-05-06 17:16 48.40942 9.49426 12060 ft 340 kts 23°
2026-05-06 17:16 48.43107 9.50822 11639 ft 337 kts 23°
2026-05-06 17:16 48.45250 9.52205 11206 ft 334 kts 23°
2026-05-06 17:17 48.47376 9.53580 10761 ft 332 kts 22°
2026-05-06 17:17 48.49495 9.54956 10329 ft 331 kts 22°
2026-05-06 17:17 48.51597 9.56323 9875 ft 326 kts 22°
2026-05-06 17:17 48.53616 9.57638 9589 ft 307 kts 22°
2026-05-06 17:18 48.55549 9.58894 9034 ft 299 kts 22°
2026-05-06 17:18 48.57447 9.60125 8508 ft 294 kts 22°
2026-05-06 17:18 48.59336 9.61350 8202 ft 295 kts 22°
2026-05-06 17:18 48.61212 9.62572 7921 ft 293 kts 22°
2026-05-06 17:19 48.63091 9.63798 7835 ft 292 kts 22°
2026-05-06 17:19 48.64949 9.65011 7845 ft 293 kts 22°
2026-05-06 17:19 48.66818 9.66234 7848 ft 293 kts 21°
2026-05-06 17:19 48.68791 9.66817 7748 ft 287 kts 357°
2026-05-06 17:20 48.70700 9.66188 7105 ft 280 kts 337°
2026-05-06 17:20 48.72419 9.64947 6589 ft 270 kts 321°
2026-05-06 17:20 48.73610 9.62858 5989 ft 261 kts 293°
2026-05-06 17:20 48.74217 9.60297 5389 ft 256 kts 284°
2026-05-06 17:21 48.74704 9.57737 4952 ft 246 kts 284°
2026-05-06 17:21 48.75024 9.55298 4702 ft 228 kts 269°
2026-05-06 17:21 48.74772 9.53018 4451 ft 213 kts 253°
2026-05-06 17:21 48.74379 9.50917 4195 ft 202 kts 253°
2026-05-06 17:22 48.73998 9.48876 3971 ft 200 kts 253°
2026-05-06 17:22 48.73630 9.46899 3909 ft 190 kts 253°
2026-05-06 17:22 48.73272 9.44982 3878 ft 189 kts 253°
2026-05-06 17:22 48.72917 9.43087 3701 ft 187 kts 254°
2026-05-06 17:23 48.72562 9.41190 3489 ft 186 kts 254°
2026-05-06 17:23 48.72215 9.39336 3236 ft 180 kts 254°
2026-05-06 17:23 48.71878 9.37542 3001 ft 173 kts 254°
2026-05-06 17:23 48.71562 9.35860 2768 ft 160 kts 254°
2026-05-06 17:24 48.71275 9.34328 2576 ft 141 kts 254°
2026-05-06 17:24 48.71012 9.32925 2385 ft 139 kts 254°
2026-05-06 17:24 48.70745 9.31507 2179 ft 140 kts 253°
2026-05-06 17:24 48.70480 9.30106 1976 ft 137 kts 253°
2026-05-06 17:25 48.70217 9.28717 1796 ft 137 kts 253°
2026-05-06 17:25 48.69963 9.27360 1625 ft 136 kts 253°
2026-05-06 17:25 48.69703 9.25975 1451 ft 132 kts 253°
2026-05-06 17:25 48.69453 9.24670 1285 ft 127 kts 253°
2026-05-06 17:26 48.69226 9.23465 1209 ft 104 kts 254°
2026-05-06 17:26 48.69078 9.22680 1223 ft 60 kts 253°
2026-05-06 17:26 48.68990 9.22208 1247 ft 37 kts 254°
2026-05-06 17:26 48.68944 9.21870 1244 ft 31 kts 272°
2026-05-06 17:27 48.68964 9.21621 1261 ft 11 kts 282°
2026-05-06 17:27 48.68978 9.21516 1261 ft 10 kts 282°
2026-05-06 17:27 48.68994 9.21418 1265 ft 9 kts 286°
2026-05-06 17:27 48.68997 9.21330 1261 ft 8 kts 261°
2026-05-06 17:28 48.68982 9.21244 1264 ft 9 kts 255°
2026-05-06 17:28 48.68964 9.21142 1268 ft 11 kts 255°
2026-05-06 17:28 48.68944 9.21035 1273 ft 10 kts 254°
2026-05-06 17:28 48.68922 9.20923 1270 ft 12 kts 253°
2026-05-06 17:29 48.68896 9.20788 1273 ft 15 kts 253°
2026-05-06 17:29 48.68870 9.20652 1278 ft 13 kts 253°
2026-05-06 17:29 48.68847 9.20534 1279 ft 11 kts 254°
2026-05-06 17:29 48.68827 9.20432 1281 ft 9 kts 254°
2026-05-06 17:30 48.68810 9.20343 1284 ft 8 kts 253°
2026-05-06 17:30 48.68792 9.20246 1286 ft 11 kts 254°
2026-05-06 17:30 48.68779 9.20176 1287 ft 10 kts 253°
2026-05-06 17:30 48.68761 9.20080 1289 ft 10 kts 255°
2026-05-06 17:31 48.68789 9.19957 1295 ft 7 kts 313°
2026-05-06 17:31 48.68808 9.19928 1296 ft 7 kts 315°
2026-05-06 17:31 48.68867 9.19882 1301 ft 9 kts 343°
2026-05-06 17:31 48.68887 9.19806 1305 ft 13 kts 253°
2026-05-06 17:32 48.68864 9.19685 1308 ft 11 kts 253°
2026-05-06 17:32 48.68842 9.19572 1310 ft 11 kts 253°
2026-05-06 17:32 48.68821 9.19461 1312 ft 11 kts 254°
2026-05-06 17:32 48.68802 9.19359 1314 ft 8 kts 254°
2026-05-06 17:33 48.68815 9.19316 1315 ft 5 kts 322°
2026-05-06 17:33 48.68840 9.19301 1315 ft 6 kts 342°
2026-05-06 17:33 48.68863 9.19291 1316 ft 1 kts 344°
2026-05-06 17:33 48.68867 9.19289 1316 ft 0 kts 344°